Weather in Sretenskoye

Russia / Perm Krai     58°36′19″N   55°33′22″E
temp.,
°C
wind,
m/s
gust,
m/s
humid.,
%
clouds,
%
prec.,
mm/h
press.,
hPa
HPBL,
m
19 september, sun
sun1923:00+2nw51193100 0.4 10141039
02:00+2nw51088100 0.2 1014994
05:00+2nnw51083100 0.3 10161171
08:00+2nnw51080100 0.1 10171308
11:00+4nnw51074100 0.2 10171402
14:00+5nw5961100 0.1 10191447
17:00+5nw5963100 0.1 10201500
20:00+4nw4866100 0.0 10211068
20 september, mon
mon2023:00+3nw4972100 0.0 1022758
02:00+3nw497510 0.0 1023728
05:00−1nw39935 0.0 1025335
08:00−1nnw289553 0.0 1026335
11:00+3n347598 0.0 1027753
14:00+5n3568100 0.0 10281066
17:00+4n2471100 0.0 1029769
20:00+4nne2573100 0.0 1030153
21 september, tue
tue2123:00+4nne2370100 0.0 103181
02:000n118810 0.0 103110
05:00−1nw11925 0.0 103110
08:00−1nnw12905 0.0 103159
11:00+5n22655 0.0 1030610
14:00+8nnw22555 0.0 10281000
17:00+8n235564 0.0 1027985
20:00+2nne118574 0.0 102810
22 september, wed
wed2223:00+1nne11895 0.0 102810
02:000nnw11905 0.0 102810
05:000n119312 0.0 102812
08:00+2n128563 0.0 102775
11:00+7n237095 0.0 1028389
14:00+10n236116 0.0 1027916
17:00+9nne347028 0.0 1027758
20:00+4nne119225 0.0 102810
23 september, thu
thu2323:00+3nne119447 0.0 102910
02:00+3nnw00947 0.0 102910
05:00+2e11945 0.0 102910
08:00+2se11921 0.0 103011
11:00+9sse23670 0.0 1030450
14:00+12sse23560 0.0 1029943
17:00+12s23570 0.0 1028868
20:00+7se22790 0.0 102812